Location: Gloden
(48.4833°N, 15.3167°E)
Time: 17:12:39
(UTC+00:00)

CENTAUR R/B - Pass Details

Date: 15 December 2019
Orbit: 773 x 1415 km, 63.4° (Epoch: 18 January)

Event Time Altitude Azimuth Distance (km) Brightness Sun altitude
Rises 05:39:46 0° 211° (SSW) 3,429 5.3 -10.0°
Reaches altitude 10° 05:42:05 10° 210° (SSW) 2,561 4.7 -9.7°
Maximum altitude 05:48:02 74° 126° (SE) 1,037 2.9 -8.8°
Drops below altitude 10° 05:55:06 10° 43° (NE) 3,017 5.3 -7.7°
Sets 05:58:02 0° 42° (NE) 4,080 6.0 -7.3°
